Preview of NWS' New Version of Forecast
This preview is not operational and should not be used for support decisions.

Regional Weather Roundup (RWR)

Issued by National Weather Service (NWS)

                            
000
ASUS43 KTOP 171908
RWRKS 

WEATHER ROUNDUP FOR KANSAS
NATIONAL WEATHER SERVICE GOODLAND KS
200 PM CDT WED APR 17 2019

NOTE:  "FAIR" INDICATES FEW OR NO CLOUDS BELOW 12,000 FEET WITH NO
SIGNIFICANT WEATHER AND/OR OBSTRUCTIONS TO VISIBILITY.

KSZ001>006-013>018-027>032-041>047-172000-
NORTHWEST KANSAS
  
CITY           SKY/WX    TMP DP  RH WIND       PRES   REMARKS
GOODLAND       FAIR      62  41  46 N30G36    29.85F                  
HAYS           SUNNY     76  50  40 N16G29    29.73R                  
HILL CITY      MOSUNNY   75  49  39 N21G31    29.76F                  
RUSSELL        SUNNY     78  49  35 N14G26    29.69S                  
$$

KSZ061>065-074>080-084>089-172000-
SOUTHWEST KANSAS
  
CITY           SKY/WX    TMP DP  RH WIND       PRES   REMARKS
DODGE CITY     MOSUNNY   78  46  32 N20G30    29.73F                  
ELKHART        FAIR      72  46  39 N26G36    29.77F                  
GARDEN CITY    MOSUNNY   73  48  41 N22G33    29.76F                  
GREAT BEND     SUNNY     76  53  44 N17       29.70F                  
LIBERAL        CLOUDY    75  45  34 N23G30    29.74F                  
PRATT          MOSUNNY   76  57  52 N3        29.70F                  
$$

KSZ066>073-081>083-090>101-172000-
SOUTHEAST KANSAS
  
CITY           SKY/WX    TMP DP  RH WIND       PRES   REMARKS
CHANUTE        PTSUNNY   80  60  50 S21G30    29.69F                  
COFFEYVILLE    PTSUNNY   79  62  56 S20G32    29.68F                  
HUTCHINSON     PTSUNNY   74  58  57 NW7       29.69F                  
MEDICINE LODGE   N/A     80  57  45 NE5       29.66F                  
NEWTON         CLOUDY    75  60  59 SW13G18   29.70R                  
PARSONS        CLOUDY    78  62  57 S15G25    29.70F                  
WICHITA INTL   MOSUNNY   77  57  50 SW13      29.67F                  
WICHITA JABRA  MOSUNNY   76  57  51 SW13      29.68S                  
WICHITA MCCONL PTSUNNY   76  58  54 S10       29.67F                  
WINFIELD       PTSUNNY   78  61  55 SW15G24   29.67F                  
$$

KSZ007>012-019>026-033>040-048>060-102>105-172000-
NORTHEAST KANSAS
  
CITY           SKY/WX    TMP DP  RH WIND       PRES   REMARKS
CONCORDIA      MOSUNNY   79  53  40 N13       29.66F                  
EMPORIA        PTSUNNY   80  59  48 SW14G24   29.65F                  
LAWRENCE       CLOUDY    74  59  59 S15G21    29.66F                  
MANHATTAN      CLOUDY    76  59  55 SW9       29.65F                  
MARYSVILLE     PTSUNNY   75  61  60 NW13      29.65F                  
OLATHE IND     CLOUDY    72  62  71 SW14G22   29.69F                  
OLATHE EXE     CLOUDY    70  60  70 SW9       29.69S                  
SALINA         CLOUDY    73  58  59 NW6       29.69R                  
TOPEKA BILLARD CLOUDY    73  58  59 SW12G20   29.66F                  
TOPEKA FORBES  CLOUDY    74  58  57 SW14      29.66F                  
$$